Location: Kawakawa
(35.3830°S, 174.0670°E)
Time: 08:49:25
(UTC+13:00)

Cosmos 1606 - Pass Details

Date: 24 January 2019
Orbit: 506 x 528 km, 82.5° (Epoch: 20 February)

Event Time Altitude Azimuth Distance (km) Brightness Sun altitude
Exits shadow 23:25:34 41° 199° (SSW) 787 4.0 -27.3°
Drops below altitude 10° 23:28:20 10° 180° (S) 1,804 6.1 -27.6°
Sets 23:30:32 0° 177° (S) 2,701 7.1 -27.8°
